Tracking 18980 objects as of 21-Feb-2018
HD Live streaming from Space Station
objects crossing your sky now

FENGYUN 1C DEB

Track FENGYUN 1C DEB now!
10-day predictions


NORAD ID: 30826
Int'l Code: 1999-025AVL
Perigee: 555.1 km
Apogee: 832.4 km
Inclination: 98.8 °
Period: 98.5 minutes
Semi major axis: 7064 km
RCS: 0.0008 m2 (small)
Launch date: May 10, 1999
Source: People's Republic of China (PRC)
Launch site: Taiyaun Space Center, China (TSC)

Note: This is SATELLITE DEBRIS
aabbcc
Your satellite tracking list
Your tracking list is empty




NASA's NSSDC Master Catalog

Two Line Element Set (TLE):
1 30826U 99025AVL 18051.07379957  .00000202  00000-0  40990-4 0  9996
2 30826  98.8112 344.5749 0196286 188.2074 241.2819 14.62028210584761
Source of the keplerian elements: AFSPC